Weather History for Akron, CO

Change the Weather History Date:

Monday, December 1, 2014

  Actual Average Record
Temperature  
Mean Temperature 25 °F 31 °F  
Max Temperature 36 °F 42 °F 70 °F (1998)
Min Temperature 13 °F 19 °F -14 °F (1985)
Degree Days  
Heating Degree Days 40    
Month to date heating degree days 40  
Cooling Degree Days 0    
Month to date cooling degree days 0  
Moisture  
Dew Point 10 °F    
Average Humidity 60    
Maximum Humidity 80    
Minimum Humidity 40    
Precipitation  
Precipitation 0.00 in 0.02 in 0.14 in (1950)
Month to date precipitation 0.00 0.02  
Year to date precipitation 18.11 16.36  
Sea Level Pressure  
Sea Level Pressure 30.40 in    
Wind  
Wind Speed 11 mph (South)    
Max Wind Speed 26 mph    
Max Gust Speed 34 mph    
Visibility 10 miles    
Events      
T = Trace of Precipitation, MM = Missing Value Source: NWS Daily Summary

Daily Weather History Graph

Daily Weather History Graph

Search for Another Location

Airport:

Trip Planner

Search our weather history database for the weather conditions in past years. The results will help you decide how hot, cold, wet, or windy it might be!

Date:

Astronomy

Dec. 01, 2014 Rise Set
Actual Time 6:56 AM MST 4:27 PM MST
Civil Twilight 6:25 AM MST 4:57 PM MST
Nautical Twilight 5:52 AM MST 5:31 PM MST
Astronomical Twilight 5:19 AM MST 6:04 PM MST
Moon 1:34 PM MST (12/1) 1:34 AM MST (12/1)
Length of Visible Light 10h 31m
Length of Day
9h 31m
Waxing Gibbous, 76% of the Moon is Illuminated
Dec 1
Waxing Gibbous
Dec 6
Full
Dec 14
Last Quarter
Dec 21
New
Dec 28
First Quarter

Hourly Weather History & Observations

Time (MST) Temp. Windchill Dew Point Humidity Pressure Visibility Wind Dir Wind Speed Gust Speed Precip Events Conditions
12:53 AM 17.1 °F - 10.0 °F 74% 30.61 in 10.0 mi Calm Calm - N/A   Overcast
1:53 AM 17.1 °F 10.0 °F 10.0 °F 74% 30.61 in 10.0 mi SSE 4.6 mph - N/A   Overcast
2:53 AM 17.1 °F 10.0 °F 10.0 °F 74% 30.60 in 10.0 mi South 4.6 mph - N/A   Mostly Cloudy
3:53 AM 16.0 °F 6.3 °F 10.0 °F 77% 30.58 in 10.0 mi South 6.9 mph - N/A   Partly Cloudy
4:53 AM 15.1 °F 3.3 °F 9.0 °F 77% 30.57 in 10.0 mi SSE 9.2 mph - N/A   Scattered Clouds
5:53 AM 14.0 °F 1.2 °F 8.1 °F 77% 30.58 in 10.0 mi SSE 10.4 mph - N/A   Partly Cloudy
6:53 AM 14.0 °F -0.2 °F 5.0 °F 67% 30.58 in 10.0 mi SSE 12.7 mph - N/A   Overcast
7:53 AM 16.0 °F 0.6 °F 1.0 °F 52% 30.58 in 10.0 mi SSE 16.1 mph - N/A   Mostly Cloudy
8:53 AM 19.0 °F 3.6 °F -0.9 °F 42% 30.56 in 10.0 mi SSE 18.4 mph - N/A   Clear
9:53 AM 21.0 °F 5.4 °F 1.0 °F 42% 30.53 in 10.0 mi SSE 20.7 mph - N/A   Clear
10:53 AM 25.0 °F 11.7 °F 3.9 °F 41% 30.48 in 10.0 mi South 17.3 mph - N/A   Clear
11:53 AM 30.9 °F 18.1 °F 10.0 °F 42% 30.40 in 10.0 mi South 21.9 mph 27.6 mph N/A   Clear
12:53 PM 34.0 °F 21.5 °F 12.9 °F 42% 30.33 in 10.0 mi South 24.2 mph 28.8 mph N/A   Clear
1:53 PM 35.1 °F 23.0 °F 15.1 °F 44% 30.31 in 10.0 mi South 24.2 mph 29.9 mph N/A   Clear
2:53 PM 36.0 °F 26.7 °F 15.1 °F 43% 30.27 in 10.0 mi South 15.0 mph 27.6 mph N/A   Clear
3:53 PM 33.1 °F 23.0 °F 14.0 °F 46% 30.26 in 10.0 mi South 15.0 mph - N/A   Clear
4:53 PM 30.0 °F 19.1 °F 12.9 °F 49% 30.27 in 10.0 mi South 15.0 mph - N/A   Clear
5:53 PM 27.0 °F 14.7 °F 14.0 °F 58% 30.28 in 10.0 mi South 16.1 mph - N/A   Clear
6:53 PM 25.0 °F 16.3 °F 12.9 °F 60% 30.28 in 10.0 mi South 8.1 mph - N/A   Clear
7:53 PM 26.1 °F 14.5 °F 14.0 °F 60% 30.27 in 10.0 mi SW 13.8 mph - N/A   Clear
8:53 PM 28.0 °F 16.1 °F 15.1 °F 58% 30.22 in 10.0 mi SW 16.1 mph - N/A   Clear
9:53 PM 27.0 °F 15.2 °F 16.0 °F 63% 30.20 in 10.0 mi SW 15.0 mph - N/A   Clear
10:53 PM 26.1 °F 15.0 °F 16.0 °F 66% 30.18 in 10.0 mi WSW 12.7 mph - N/A   Clear
11:53 PM 25.0 °F 12.2 °F 16.0 °F 69% 30.15 in 10.0 mi WSW 16.1 mph - N/A   Clear